TimeEDT,TemperatureF,Dew PointF,Humidity,Sea Level PressureIn,VisibilityMPH,Wind Direction,Wind SpeedMPH,Gust SpeedMPH,PrecipitationIn,Events,Conditions,WindDirDegrees,DateUTC
12:51 AM,39.9,28.0,63,29.99,10.0,WNW,5.8,-,N/A,,Partly Cloudy,300,2013-03-29 04:51:00
1:51 AM,37.0,28.0,70,29.99,10.0,NW,6.9,-,N/A,,Overcast,310,2013-03-29 05:51:00
2:51 AM,39.9,28.9,65,29.98,10.0,Calm,Calm,-,N/A,,Overcast,0,2013-03-29 06:51:00
3:51 AM,41.0,30.0,65,29.97,10.0,Variable,3.5,-,N/A,,Overcast,0,2013-03-29 07:51:00
4:51 AM,39.0,28.9,67,29.97,10.0,Calm,Calm,-,N/A,,Mostly Cloudy,0,2013-03-29 08:51:00
6:51 AM,39.0,30.0,70,29.99,10.0,WNW,3.5,-,N/A,,Overcast,300,2013-03-29 10:51:00
7:51 AM,44.1,33.1,65,29.99,10.0,NW,9.2,-,N/A,,Overcast,320,2013-03-29 11:51:00
8:51 AM,44.1,33.1,65,30.00,10.0,WNW,10.4,-,0.00,,Overcast,300,2013-03-29 12:51:00
9:51 AM,46.0,33.1,61,30.01,10.0,NW,10.4,-,N/A,,Overcast,310,2013-03-29 13:51:00
10:51 AM,48.9,33.1,54,30.01,10.0,NW,9.2,-,N/A,,Overcast,310,2013-03-29 14:51:00
11:51 AM,52.0,33.1,49,30.00,10.0,WNW,8.1,-,N/A,,Overcast,300,2013-03-29 15:51:00
12:51 PM,54.0,30.0,40,29.99,10.0,NW,9.2,17.3,N/A,,Scattered Clouds,320,2013-03-29 16:51:00
1:51 PM,54.0,28.9,38,29.97,10.0,NW,13.8,-,N/A,,Scattered Clouds,310,2013-03-29 17:51:00
2:51 PM,53.1,26.1,35,29.96,10.0,NW,16.1,21.9,N/A,,Scattered Clouds,320,2013-03-29 18:51:00
3:51 PM,53.1,27.0,37,29.95,10.0,NW,12.7,-,N/A,,Overcast,310,2013-03-29 19:51:00
4:51 PM,50.0,30.0,46,29.96,10.0,NW,16.1,21.9,N/A,,Overcast,320,2013-03-29 20:51:00
5:51 PM,50.0,28.0,43,29.97,10.0,WNW,6.9,-,N/A,,Overcast,300,2013-03-29 21:51:00
6:51 PM,48.0,30.0,50,29.98,10.0,Variable,5.8,-,N/A,,Overcast,0,2013-03-29 22:51:00
7:51 PM,46.0,30.0,54,29.99,10.0,WNW,5.8,-,N/A,,Overcast,300,2013-03-29 23:51:00
9:51 PM,45.0,28.9,53,30.01,10.0,WNW,9.2,-,N/A,,Overcast,300,2013-03-30 01:51:00
10:51 PM,43.0,28.0,56,30.02,10.0,NW,6.9,-,N/A,,Overcast,310,2013-03-30 02:51:00
11:51 PM,42.1,28.0,58,30.02,10.0,WNW,5.8,-,N/A,,Overcast,290,2013-03-30 03:51:00